Lafayette, IN

12:01 AM EST on February 24, 2018 (GMT -0500)
Purdue Univ

Weather History for KLAF - April, 2014

Change the Weather History Date:

Saturday, April 26, 2014

  Actual Average Record
Temperature  
Mean Temperature 57 °F 55 °F  
Max Temperature 70 °F 67 °F 88 °F (1986)
Min Temperature 44 °F 44 °F 27 °F (1972)
Degree Days  
Heating Degree Days 8 10  
Month to date heating degree days 383 368  
Since 1 July heating degree days 6333 5453  
Cooling Degree Days 0 1  
Month to date cooling degree days 1 8  
Year to date cooling degree days 1 9  
Growing Degree Days 8 (Base 50)    
Moisture  
Dew Point 41 °F    
Average Humidity 61    
Maximum Humidity 86    
Minimum Humidity 36    
Precipitation  
Precipitation 0.00 in 0.12 in 1.05 in (2011)
Month to date precipitation 3.86 3.02  
Year to date precipitation 8.70 9.31  
Sea Level Pressure  
Sea Level Pressure 29.91 in    
Wind  
Wind Speed 8 mph (North)    
Max Wind Speed 18 mph    
Max Gust Speed 22 mph    
Visibility 10 miles    
Events      
T = Trace of Precipitation, MM = Missing Value Source: NWS Daily Summary

Daily Weather History Graph

Daily Weather History Graph

Search for Another Location

Airport or City:

Trip Planner

Search our weather history database for the weather conditions in past years. The results will help you decide how hot, cold, wet, or windy it might be!

Date:

Astronomy

Apr. 26, 2014 Rise Set
Actual Time 6:53 AM EDT 8:38 PM EDT
Civil Twilight 6:24 AM EDT 9:07 PM EDT
Nautical Twilight 5:49 AM EDT 9:42 PM EDT
Astronomical Twilight 5:11 AM EDT 10:20 PM EDT
Moon 5:17 AM EDT (4/26) 6:05 PM EDT (4/26)
Length of Visible Light 14h 42m
Length of Day
13h 44m
Waning Crescent, 8% of the Moon is Illuminated
Apr 26
Waning Crescent
Apr 29
New
May 6
First Quarter
May 14
Full
May 21
Last Quarter

Hourly Weather History & Observations

Time (EDT) Temp. Dew Point Humidity Pressure Visibility Wind Dir Wind Speed Gust Speed Precip Events Conditions
1:54 AM 55.0 °F 44.1 °F 67% 29.86 in 10.0 mi West 4.6 mph - N/A   Partly Cloudy
2:54 AM 54.0 °F 44.1 °F 69% 29.86 in 10.0 mi West 4.6 mph - N/A   Mostly Cloudy
3:54 AM 54.0 °F 44.1 °F 69% 29.86 in 10.0 mi WSW 3.5 mph - N/A   Partly Cloudy
4:54 AM 52.0 °F 44.1 °F 74% 29.86 in 10.0 mi SW 4.6 mph - N/A   Scattered Clouds
5:54 AM 50.0 °F 44.1 °F 80% 29.86 in 10.0 mi West 3.5 mph - N/A   Clear
6:54 AM 46.9 °F 43.0 °F 86% 29.88 in 10.0 mi SSW 3.5 mph - N/A   Clear
7:54 AM 48.0 °F 44.1 °F 86% 29.90 in 10.0 mi Calm Calm - N/A   Scattered Clouds
8:54 AM 55.9 °F 46.0 °F 69% 29.90 in 10.0 mi SW 4.6 mph - N/A   Overcast
9:54 AM 61.0 °F 46.9 °F 60% 29.91 in 10.0 mi Calm Calm - N/A   Mostly Cloudy
10:54 AM 60.1 °F 42.1 °F 51% 29.92 in 10.0 mi NNE 16.1 mph - N/A   Clear
11:54 AM 62.1 °F 41.0 °F 46% 29.93 in 10.0 mi NNE 9.2 mph - N/A   Clear
12:54 PM 64.9 °F 43.0 °F 45% 29.93 in 10.0 mi NNE 10.4 mph - N/A   Clear
1:54 PM 66.0 °F 43.0 °F 43% 29.93 in 10.0 mi NNE 4.6 mph - N/A   Clear
2:54 PM 68.0 °F 44.1 °F 42% 29.94 in 10.0 mi NE 9.2 mph - N/A   Clear
3:54 PM 69.1 °F 43.0 °F 39% 29.94 in 10.0 mi NE 12.7 mph - N/A   Clear
4:54 PM 68.0 °F 41.0 °F 37% 29.92 in 10.0 mi NNE 12.7 mph - N/A   Clear
5:54 PM 66.9 °F 39.9 °F 37% 29.91 in 10.0 mi NE 16.1 mph - N/A   Clear
6:54 PM 63.0 °F 35.1 °F 35% 29.91 in 10.0 mi NNE 13.8 mph - N/A   Clear
7:54 PM 59.0 °F 32.0 °F 36% 29.91 in 10.0 mi NNE 13.8 mph - N/A   Clear
8:54 PM 55.9 °F 32.0 °F 40% 29.93 in 10.0 mi NNE 10.4 mph - N/A   Clear
9:54 PM 53.1 °F 32.0 °F 45% 29.95 in 10.0 mi NNE 9.2 mph - N/A   Clear
10:54 PM 52.0 °F 34.0 °F 50% 29.96 in 10.0 mi NE 11.5 mph - N/A   Clear
11:54 PM 51.1 °F 34.0 °F 52% 29.96 in 10.0 mi NE 10.4 mph - N/A   Clear